Weather in Tulguba

Russia / Republic of Karelia     62°04′05″N   34°21′14″E
temp.,
°C
wind,
m/s
gust,
m/s
humid.,
%
clouds,
%
prec.,
mm/h
press.,
hPa
HPBL,
m
2 march, tue
tue200:00+1wnw5138662 0.1 1002808
03:00−1wnw5148633 0.1 1003661
06:00−2wnw513850 0.0 1002769
09:00−3wnw513860 0.0 1004724
12:00−1nw6117959 0.0 10051482
15:00−1nw5117648 0.1 10081335
18:00−4nw412810 0.0 1010549
21:00−7wnw311852 0.0 1012307
3 march, wed
wed300:00−7w38900 0.0 1011189
03:00−5w3119332 0.0 1011409
06:00−5w4129246 0.0 1009480
09:00−4w4128952 0.0 1008507
12:00−2wnw598839 0.0 1007755
15:00−1w5108865 0.0 1005750
18:00−2w499099 0.0 1002662
21:00−3sw2797100 0.1 999225
4 march, thu
thu400:00−3se1298100 1.6 99562
03:00−3ene4897100 7.8 995487
06:00−5n51093100 2.5 996523
09:00−8nnw3795100 2.6 998313
12:00−5nnw259298 0.0 999474
15:00−4nnw248897 0.1 1000643
18:00−7nnw129499 0.0 100121
21:00−8n1297100 0.1 100221
5 march, fri
fri500:00−9wnw1197100 0.1 100321
03:00−9wnw129798 0.4 100332
06:00−10nw2496100 0.2 1004103
09:00−13wnw249664 0.2 1005125
12:00−9nnw359383 0.1 1007498
15:00−9n469192 0.3 1010610
18:00−13nnw239275 0.0 101151
21:00−16nw229437 0.0 101320
6 march, sat
sat600:00−18wsw12950 0.0 101420
03:00−18wsw22987 0.0 101422
06:00−17wsw389548 0.0 1011174
09:00−13w489371 0.0 1010315
12:00−10wsw379382 0.0 1009384
15:00−7wsw479190 0.1 1007646
18:00−8sw3992100 0.1 1005523
21:00−10sw31192100 0.1 1003382